Time,TemperatureF,DewpointF,PressureIn,WindDirection,WindDirectionDegrees,WindSpeedMPH,WindSpeedGustMPH,Humidity,HourlyPrecipIn,Conditions,Clouds,dailyrainin,SolarRadiationWatts/m^2,SoftwareType,DateUTC
2013-02-22 00:02:00,21.8,16.6,30.11,ENE,69,4.0,8.0,80,0.00,,---,0.00,0.00,VWS V14.01,2013-02-22 06:02:00,
2013-02-22 00:07:00,21.8,16.6,30.11,ENE,64,5.0,7.0,80,0.00,,---,0.00,0.00,VWS V14.01,2013-02-22 06:07:00,
2013-02-22 00:12:00,21.8,16.6,30.11,ENE,63,4.0,9.0,80,0.00,,---,0.00,0.00,VWS V14.01,2013-02-22 06:12:00,
2013-02-22 00:17:00,21.6,16.4,30.10,ENE,60,5.0,8.0,80,0.00,,---,0.00,0.00,VWS V14.01,2013-02-22 06:17:00,
2013-02-22 00:22:00,21.5,16.3,30.10,ENE,61,6.0,9.0,80,0.00,,---,0.00,0.00,VWS V14.01,2013-02-22 06:22:00,
2013-02-22 00:27:00,21.5,16.6,30.10,NE,53,5.0,9.0,81,0.00,,---,0.00,0.00,VWS V14.01,2013-02-22 06:27:00,
2013-02-22 00:32:00,21.4,16.5,30.09,NE,53,4.0,7.0,81,0.00,,---,0.00,0.00,VWS V14.01,2013-02-22 06:32:00,
2013-02-22 00:37:00,21.4,16.5,30.09,NE,51,7.0,9.0,81,0.00,,---,0.00,0.00,VWS V14.01,2013-02-22 06:37:00,
2013-02-22 00:42:00,21.3,16.4,30.09,NE,44,5.0,12.0,81,0.00,,---,0.00,0.00,VWS V14.01,2013-02-22 06:42:00,
2013-02-22 00:47:00,21.3,16.4,30.08,NE,55,5.0,9.0,81,0.00,,---,0.00,0.00,VWS V14.01,2013-02-22 06:47:00,
2013-02-22 00:52:00,21.2,16.6,30.08,NE,49,8.0,11.0,82,0.00,,---,0.00,0.00,VWS V14.01,2013-02-22 06:52:00,
2013-02-22 00:57:00,21.2,16.6,30.08,NE,49,10.0,10.0,82,0.00,,---,0.00,0.00,VWS V14.01,2013-02-22 06:57:00,
2013-02-22 01:02:00,21.2,16.6,30.06,ENE,57,9.0,10.0,82,0.00,,---,0.00,0.00,VWS V14.01,2013-02-22 07:02:00,
2013-02-22 01:07:00,21.1,16.5,30.06,NE,52,9.0,11.0,82,0.00,,---,0.00,0.00,VWS V14.01,2013-02-22 07:07:00,
2013-02-22 01:13:00,21.2,16.6,30.06,NE,39,9.0,12.0,82,0.00,,---,0.00,0.00,VWS V14.01,2013-02-22 07:13:00,
2013-02-22 01:18:00,21.2,16.6,30.06,ENE,64,9.0,11.0,82,0.00,,---,0.00,0.00,VWS V14.01,2013-02-22 07:18:00,
2013-02-22 01:23:00,21.2,16.6,30.06,NE,48,9.0,10.0,82,0.00,,---,0.00,0.00,VWS V14.01,2013-02-22 07:23:00,
2013-02-22 01:28:00,21.2,16.6,30.06,NE,51,6.0,11.0,82,0.00,,---,0.00,0.00,VWS V14.01,2013-02-22 07:28:00,
2013-02-22 01:33:00,21.2,16.6,30.05,NE,49,9.0,13.0,82,0.00,,---,0.00,0.00,VWS V14.01,2013-02-22 07:33:00,
2013-02-22 01:38:00,21.1,16.5,30.05,NE,46,12.0,14.0,82,0.00,,---,0.00,0.00,VWS V14.01,2013-02-22 07:38:00,
2013-02-22 01:43:00,21.1,16.8,30.05,NE,50,6.0,10.0,83,0.00,,---,0.00,0.00,VWS V14.01,2013-02-22 07:43:00,
2013-02-22 01:48:00,21.0,16.9,30.05,NE,55,8.0,10.0,84,0.00,,---,0.00,0.00,VWS V14.01,2013-02-22 07:48:00,
2013-02-22 01:53:00,20.8,17.0,30.05,NE,51,7.0,13.0,85,0.00,,---,0.00,0.00,VWS V14.01,2013-02-22 07:53:00,
2013-02-22 01:58:00,20.6,17.1,30.05,NE,45,7.0,8.0,86,0.00,,---,0.00,0.00,VWS V14.01,2013-02-22 07:58:00,
2013-02-22 02:03:00,20.4,17.2,30.03,NE,41,5.0,10.0,87,0.00,,---,0.00,0.00,VWS V14.01,2013-02-22 08:03:00,
2013-02-22 02:08:00,20.3,17.3,30.03,NE,44,3.0,6.0,88,0.00,,---,0.00,0.00,VWS V14.01,2013-02-22 08:08:00,
2013-02-22 02:13:00,20.3,17.6,30.03,NE,41,6.0,7.0,89,0.00,,---,0.00,0.00,VWS V14.01,2013-02-22 08:13:00,
2013-02-22 02:18:00,20.2,17.5,30.03,NE,40,5.0,7.0,89,0.00,,---,0.00,0.00,VWS V14.01,2013-02-22 08:18:00,
2013-02-22 02:23:00,20.2,17.5,30.03,NNE,33,4.0,7.0,89,0.00,,---,0.00,0.00,VWS V14.01,2013-02-22 08:23:00,
2013-02-22 02:28:00,20.1,17.6,30.03,NNE,28,3.0,10.0,90,0.00,,---,0.00,0.00,VWS V14.01,2013-02-22 08:28:00,
2013-02-22 02:33:00,20.1,17.6,30.01,NE,37,3.0,6.0,90,0.00,,---,0.00,0.00,VWS V14.01,2013-02-22 08:33:00,
2013-02-22 02:39:00,20.1,17.6,30.01,NE,44,5.0,7.0,90,0.00,,---,0.00,0.00,VWS V14.01,2013-02-22 08:39:00,
2013-02-22 02:44:00,20.2,17.7,30.01,NE,49,7.0,9.0,90,0.00,,---,0.00,0.00,VWS V14.01,2013-02-22 08:44:00,
2013-02-22 02:49:00,20.2,17.7,30.01,NE,40,4.0,6.0,90,0.00,,---,0.00,0.00,VWS V14.01,2013-02-22 08:49:00,
2013-02-22 02:54:00,20.2,18.0,30.01,NE,40,3.0,9.0,91,0.00,,---,0.00,0.00,VWS V14.01,2013-02-22 08:54:00,
2013-02-22 02:59:00,20.2,18.0,30.01,NE,40,4.0,9.0,91,0.00,,---,0.00,0.00,VWS V14.01,2013-02-22 08:59:00,
2013-02-22 03:04:00,20.2,18.0,30.00,NE,36,3.0,7.0,91,0.00,,---,0.00,0.00,VWS V14.01,2013-02-22 09:04:00,
2013-02-22 03:09:00,20.2,18.0,30.00,NE,37,5.0,7.0,91,0.00,,---,0.00,0.00,VWS V14.01,2013-02-22 09:09:00,
2013-02-22 03:14:00,20.2,18.0,30.00,NE,36,7.0,8.0,91,0.00,,---,0.00,0.00,VWS V14.01,2013-02-22 09:14:00,
2013-02-22 03:19:00,20.2,18.0,30.00,NE,39,4.0,10.0,91,0.00,,---,0.00,0.00,VWS V14.01,2013-02-22 09:19:00,
2013-02-22 03:24:00,20.3,18.1,30.00,NE,40,4.0,7.0,91,0.00,,---,0.00,0.00,VWS V14.01,2013-02-22 09:24:00,
2013-02-22 03:29:00,20.3,18.1,30.00,NE,42,4.0,7.0,91,0.00,,---,0.00,0.00,VWS V14.01,2013-02-22 09:29:00,
2013-02-22 03:34:00,20.3,18.1,30.00,NE,42,4.0,7.0,91,0.00,,---,0.00,0.00,VWS V14.01,2013-02-22 09:34:00,
2013-02-22 03:39:00,20.3,18.1,30.00,NE,42,2.0,6.0,91,0.00,,---,0.00,0.00,VWS V14.01,2013-02-22 09:39:00,
2013-02-22 03:44:00,20.3,18.1,30.00,NNE,33,3.0,7.0,91,0.00,,---,0.00,0.00,VWS V14.01,2013-02-22 09:44:00,
2013-02-22 03:49:00,20.3,18.1,30.00,NE,38,4.0,5.0,91,0.00,,---,0.00,0.00,VWS V14.01,2013-02-22 09:49:00,
2013-02-22 03:54:00,20.3,18.1,30.00,NE,34,5.0,8.0,91,0.00,,---,0.00,0.00,VWS V14.01,2013-02-22 09:54:00,
2013-02-22 03:59:00,20.3,18.1,30.00,NE,34,3.0,4.0,91,0.00,,---,0.00,0.00,VWS V14.01,2013-02-22 09:59:00,
2013-02-22 04:04:00,20.3,18.1,29.99,NE,40,4.0,6.0,91,0.00,,---,0.00,0.00,VWS V14.01,2013-02-22 10:04:00,
2013-02-22 04:09:00,20.2,18.2,29.99,NE,44,3.0,6.0,92,0.00,,---,0.00,0.00,VWS V14.01,2013-02-22 10:09:00,
2013-02-22 04:14:00,20.3,18.4,29.99,NE,44,2.0,5.0,92,0.00,,---,0.00,0.00,VWS V14.01,2013-02-22 10:14:00,
2013-02-22 04:19:00,20.2,18.2,29.98,NE,52,4.0,5.0,92,0.00,,---,0.00,0.00,VWS V14.01,2013-02-22 10:19:00,
2013-02-22 04:24:00,20.3,18.4,29.98,NE,36,3.0,6.0,92,0.00,,---,0.00,0.00,VWS V14.01,2013-02-22 10:24:00,
2013-02-22 04:29:00,20.2,18.2,29.98,NNE,19,6.0,6.0,92,0.00,,---,0.00,0.00,VWS V14.01,2013-02-22 10:29:00,
2013-02-22 04:34:00,20.3,18.4,29.98,NNE,26,4.0,6.0,92,0.00,,---,0.00,0.00,VWS V14.01,2013-02-22 10:34:00,
2013-02-22 04:39:00,20.2,18.2,29.98,NNE,27,4.0,6.0,92,0.00,,---,0.00,0.00,VWS V14.01,2013-02-22 10:39:00,
2013-02-22 04:44:00,20.3,18.4,29.98,NNE,30,5.0,5.0,92,0.00,,---,0.00,0.00,VWS V14.01,2013-02-22 10:44:00,
2013-02-22 04:49:00,20.3,18.4,29.97,NNE,25,4.0,9.0,92,0.00,,---,0.00,0.00,VWS V14.01,2013-02-22 10:49:00,
2013-02-22 04:55:00,20.3,18.4,29.97,NNE,30,2.0,11.0,92,0.00,,---,0.00,0.00,VWS V14.01,2013-02-22 10:55:00,
2013-02-22 05:00:00,20.3,18.4,29.97,North,5,3.0,7.0,92,0.00,,---,0.00,0.00,VWS V14.01,2013-02-22 11:00:00,
2013-02-22 05:05:00,20.3,18.4,29.97,NNE,17,6.0,7.0,92,0.00,,---,0.00,0.00,VWS V14.01,2013-02-22 11:05:00,
2013-02-22 05:10:00,20.3,18.4,29.97,NNE,33,4.0,8.0,92,0.00,,---,0.00,0.00,VWS V14.01,2013-02-22 11:10:00,
2013-02-22 05:15:00,20.3,18.4,29.97,NNE,24,7.0,7.0,92,0.00,,---,0.00,0.00,VWS V14.01,2013-02-22 11:15:00,
2013-02-22 05:20:00,20.3,18.4,29.96,NE,34,3.0,6.0,92,0.00,,---,0.00,0.00,VWS V14.01,2013-02-22 11:20:00,
2013-02-22 05:25:00,20.3,18.4,29.96,NNE,28,3.0,5.0,92,0.00,,---,0.00,0.00,VWS V14.01,2013-02-22 11:25:00,
2013-02-22 05:30:00,20.2,18.2,29.96,NE,34,7.0,8.0,92,0.00,,---,0.00,0.00,VWS V14.01,2013-02-22 11:30:00,
2013-02-22 05:35:00,20.2,18.2,29.96,NNE,29,7.0,7.0,92,0.00,,---,0.00,0.00,VWS V14.01,2013-02-22 11:35:00,
2013-02-22 05:40:00,20.2,18.2,29.96,NE,36,3.0,8.0,92,0.00,,---,0.00,0.00,VWS V14.01,2013-02-22 11:40:00,
2013-02-22 05:45:00,20.2,18.2,29.96,NNE,28,10.0,10.0,92,0.00,,---,0.00,0.00,VWS V14.01,2013-02-22 11:45:00,
2013-02-22 05:50:00,20.1,18.1,29.96,NNE,28,4.0,7.0,92,0.00,,---,0.00,0.00,VWS V14.01,2013-02-22 11:50:00,
2013-02-22 05:55:00,20.1,18.1,29.96,NNE,29,4.0,10.0,92,0.00,,---,0.00,0.00,VWS V14.01,2013-02-22 11:55:00,
2013-02-22 06:00:00,20.1,18.1,29.95,NNE,28,4.0,10.0,92,0.00,,---,0.00,0.00,VWS V14.01,2013-02-22 12:00:00,
2013-02-22 06:06:00,20.1,18.1,29.95,NNE,24,4.0,10.0,92,0.00,,---,0.00,0.00,VWS V14.01,2013-02-22 12:06:00,
2013-02-22 06:11:00,20.1,18.1,29.95,NNE,30,5.0,9.0,92,0.00,,---,0.00,0.00,VWS V14.01,2013-02-22 12:11:00,
2013-02-22 06:16:00,20.1,18.1,29.95,NE,50,6.0,10.0,92,0.00,,---,0.00,0.00,VWS V14.01,2013-02-22 12:16:00,
2013-02-22 06:21:00,20.1,18.1,29.95,NE,38,7.0,7.0,92,0.00,,---,0.00,0.00,VWS V14.01,2013-02-22 12:21:00,
2013-02-22 06:26:00,20.1,18.1,29.95,North,5,4.0,10.0,92,0.00,,---,0.00,0.00,VWS V14.01,2013-02-22 12:26:00,
2013-02-22 06:31:00,20.1,18.1,29.95,NNE,29,3.0,9.0,92,0.00,,---,0.00,0.00,VWS V14.01,2013-02-22 12:31:00,
2013-02-22 06:36:00,20.1,18.1,29.95,NNE,33,5.0,6.0,92,0.00,,---,0.00,0.00,VWS V14.01,2013-02-22 12:36:00,
2013-02-22 06:41:00,20.1,18.1,29.95,NE,34,3.0,8.0,92,0.00,,---,0.00,0.00,VWS V14.01,2013-02-22 12:41:00,
2013-02-22 06:46:00,20.1,18.1,29.95,NE,35,4.0,5.0,92,0.00,,---,0.00,0.00,VWS V14.01,2013-02-22 12:46:00,
2013-02-22 06:51:00,20.1,18.1,29.95,NNE,25,6.0,9.0,92,0.00,,---,0.00,0.00,VWS V14.01,2013-02-22 12:51:00,
2013-02-22 06:56:00,20.0,18.0,29.95,NNE,29,5.0,7.0,92,0.00,,---,0.00,0.00,VWS V14.01,2013-02-22 12:56:00,
2013-02-22 07:01:00,20.1,18.1,29.95,NNE,22,3.0,10.0,92,0.00,,---,0.00,0.00,VWS V14.01,2013-02-22 13:01:00,
2013-02-22 07:06:00,20.1,18.1,29.95,NNE,32,5.0,6.0,92,0.00,,---,0.00,5.00,VWS V14.01,2013-02-22 13:06:00,
2013-02-22 07:11:00,20.1,18.1,29.95,NNE,29,5.0,6.0,92,0.00,,---,0.00,9.00,VWS V14.01,2013-02-22 13:11:00,
2013-02-22 07:16:00,20.1,18.1,29.95,NNE,33,5.0,7.0,92,0.00,,---,0.00,11.00,VWS V14.01,2013-02-22 13:16:00,
2013-02-22 07:22:00,20.1,18.1,29.95,NNE,26,4.0,6.0,92,0.00,,---,0.00,12.00,VWS V14.01,2013-02-22 13:22:00,
2013-02-22 07:27:00,20.1,18.1,29.95,NNE,23,4.0,7.0,92,0.00,,---,0.00,18.00,VWS V14.01,2013-02-22 13:27:00,
2013-02-22 07:32:00,20.1,18.1,29.95,NE,42,9.0,9.0,92,0.00,,---,0.00,16.00,VWS V14.01,2013-02-22 13:32:00,
2013-02-22 07:37:00,20.1,18.1,29.95,NNE,31,5.0,5.0,92,0.00,,---,0.00,21.00,VWS V14.01,2013-02-22 13:37:00,
2013-02-22 07:42:00,20.1,18.1,29.95,NNE,17,3.0,5.0,92,0.00,,---,0.00,26.00,VWS V14.01,2013-02-22 13:42:00,
2013-02-22 07:47:00,20.1,18.1,29.95,NNE,26,4.0,9.0,92,0.00,,---,0.00,30.00,VWS V14.01,2013-02-22 13:47:00,
2013-02-22 07:52:00,20.2,18.2,29.95,NNE,27,5.0,10.0,92,0.00,,---,0.00,32.00,VWS V14.01,2013-02-22 13:52:00,
2013-02-22 07:57:00,20.2,18.2,29.95,NE,51,7.0,10.0,92,0.00,,---,0.00,35.00,VWS V14.01,2013-02-22 13:57:00,
2013-02-22 08:02:00,20.2,18.2,29.94,NE,34,4.0,8.0,92,0.00,,---,0.00,44.00,VWS V14.01,2013-02-22 14:02:00,
2013-02-22 08:07:00,20.2,18.2,29.94,NNE,29,10.0,10.0,92,0.00,,---,0.00,53.00,VWS V14.01,2013-02-22 14:07:00,
2013-02-22 08:12:00,20.3,18.4,29.94,NNE,32,6.0,10.0,92,0.00,,---,0.00,63.00,VWS V14.01,2013-02-22 14:12:00,
2013-02-22 08:17:00,20.4,18.5,29.93,NNE,22,5.0,9.0,92,0.00,,---,0.00,74.00,VWS V14.01,2013-02-22 14:17:00,
2013-02-22 08:22:00,20.4,18.5,29.93,NNE,29,4.0,10.0,92,0.00,,---,0.00,84.00,VWS V14.01,2013-02-22 14:22:00,
2013-02-22 08:28:00,20.4,18.5,29.93,NE,42,5.0,6.0,92,0.00,,---,0.00,98.00,VWS V14.01,2013-02-22 14:28:00,
2013-02-22 08:33:00,20.6,18.6,29.93,ENE,57,6.0,6.0,92,0.00,,---,0.00,107.00,VWS V14.01,2013-02-22 14:33:00,
2013-02-22 08:38:00,20.6,18.6,29.93,NNE,19,8.0,9.0,92,0.00,,---,0.00,104.00,VWS V14.01,2013-02-22 14:38:00,
2013-02-22 08:43:00,20.7,18.8,29.93,NE,49,5.0,11.0,92,0.00,,---,0.00,90.00,VWS V14.01,2013-02-22 14:43:00,
2013-02-22 08:48:00,20.7,19.0,29.93,NE,36,5.0,9.0,93,0.00,,---,0.00,95.00,VWS V14.01,2013-02-22 14:48:00,
2013-02-22 08:53:00,20.8,19.1,29.93,NE,36,6.0,11.0,93,0.00,,---,0.00,114.00,VWS V14.01,2013-02-22 14:53:00,
2013-02-22 08:58:00,20.9,19.2,29.93,NE,36,3.0,7.0,93,0.00,,---,0.00,128.00,VWS V14.01,2013-02-22 14:58:00,
2013-02-22 09:03:00,21.0,19.0,29.93,NNE,30,5.0,6.0,92,0.00,,---,0.00,127.00,VWS V14.01,2013-02-22 15:03:00,
2013-02-22 09:08:00,21.1,19.1,29.93,NE,36,4.0,6.0,92,0.00,,---,0.00,146.00,VWS V14.01,2013-02-22 15:08:00,
2013-02-22 09:13:00,21.1,19.1,29.93,NE,46,4.0,7.0,92,0.00,,---,0.00,160.00,VWS V14.01,2013-02-22 15:13:00,
2013-02-22 09:18:00,21.3,19.3,29.93,NE,41,5.0,7.0,92,0.00,,---,0.00,183.00,VWS V14.01,2013-02-22 15:18:00,
2013-02-22 09:23:00,21.4,19.7,29.93,NNE,32,4.0,5.0,93,0.00,,---,0.00,202.00,VWS V14.01,2013-02-22 15:23:00,
2013-02-22 09:28:00,21.6,19.9,29.93,NNE,32,4.0,10.0,93,0.00,,---,0.00,200.00,VWS V14.01,2013-02-22 15:28:00,
2013-02-22 09:33:00,21.7,19.7,29.93,NNE,26,5.0,10.0,92,0.00,,---,0.00,186.00,VWS V14.01,2013-02-22 15:33:00,
2013-02-22 09:38:00,21.7,19.7,29.93,NE,38,6.0,9.0,92,0.00,,---,0.00,172.00,VWS V14.01,2013-02-22 15:38:00,
2013-02-22 09:43:00,21.8,19.8,29.93,NE,41,4.0,7.0,92,0.00,,---,0.00,195.00,VWS V14.01,2013-02-22 15:43:00,
2013-02-22 09:48:00,21.9,19.9,29.93,NE,44,10.0,10.0,92,0.00,,---,0.00,221.00,VWS V14.01,2013-02-22 15:48:00,
2013-02-22 09:54:00,22.0,20.3,29.93,NE,39,6.0,6.0,93,0.00,,---,0.00,216.00,VWS V14.01,2013-02-22 15:54:00,
2013-02-22 09:59:00,22.1,20.4,29.93,NE,34,4.0,7.0,93,0.00,,---,0.00,230.00,VWS V14.01,2013-02-22 15:59:00,
2013-02-22 10:04:00,22.2,20.5,29.92,NNE,32,6.0,10.0,93,0.00,,---,0.00,243.00,VWS V14.01,2013-02-22 16:04:00,
2013-02-22 10:09:00,22.2,20.2,29.92,NE,44,5.0,10.0,92,0.00,,---,0.00,251.00,VWS V14.01,2013-02-22 16:09:00,
2013-02-22 10:14:00,22.3,20.3,29.92,NNE,32,5.0,10.0,92,0.00,,---,0.00,276.00,VWS V14.01,2013-02-22 16:14:00,
2013-02-22 10:19:00,22.5,20.5,29.92,NE,39,3.0,5.0,92,0.00,,---,0.00,308.00,VWS V14.01,2013-02-22 16:19:00,
2013-02-22 10:24:00,22.7,20.7,29.92,NE,40,3.0,6.0,92,0.00,,---,0.00,353.00,VWS V14.01,2013-02-22 16:24:00,
2013-02-22 10:29:00,23.0,21.3,29.92,NE,56,5.0,9.0,93,0.00,,---,0.00,404.00,VWS V14.01,2013-02-22 16:29:00,
2013-02-22 10:34:00,23.1,21.4,29.92,NE,41,5.0,6.0,93,0.00,,---,0.00,336.00,VWS V14.01,2013-02-22 16:34:00,
2013-02-22 10:39:00,23.2,21.5,29.92,NNE,32,10.0,12.0,93,0.00,,---,0.00,313.00,VWS V14.01,2013-02-22 16:39:00,
2013-02-22 10:44:00,23.1,21.1,29.92,NE,44,5.0,10.0,92,0.00,,---,0.00,329.00,VWS V14.01,2013-02-22 16:44:00,
2013-02-22 10:49:00,23.0,21.0,29.91,NNE,16,5.0,9.0,92,0.00,,---,0.00,348.00,VWS V14.01,2013-02-22 16:49:00,
2013-02-22 10:54:00,23.1,21.1,29.91,NE,51,3.0,9.0,92,0.00,,---,0.00,371.00,VWS V14.01,2013-02-22 16:54:00,
2013-02-22 10:59:00,23.3,21.3,29.91,NNE,25,4.0,7.0,92,0.00,,---,0.00,371.00,VWS V14.01,2013-02-22 16:59:00,
2013-02-22 11:04:00,23.5,21.5,29.91,NE,56,7.0,10.0,92,0.00,,---,0.00,357.00,VWS V14.01,2013-02-22 17:04:00,
2013-02-22 11:09:00,23.6,21.6,29.91,NNE,32,6.0,7.0,92,0.00,,---,0.00,320.00,VWS V14.01,2013-02-22 17:09:00,
2013-02-22 11:14:00,23.7,21.7,29.91,NE,34,5.0,6.0,92,0.00,,---,0.00,316.00,VWS V14.01,2013-02-22 17:14:00,
2013-02-22 11:19:00,23.8,21.8,29.91,NE,44,5.0,6.0,92,0.00,,---,0.00,508.00,VWS V14.01,2013-02-22 17:19:00,
2013-02-22 11:24:00,23.8,21.8,29.91,NE,51,6.0,7.0,92,0.00,,---,0.00,338.00,VWS V14.01,2013-02-22 17:24:00,
2013-02-22 11:29:00,23.9,21.9,29.91,NE,53,2.0,5.0,92,0.00,,---,0.00,348.00,VWS V14.01,2013-02-22 17:29:00,
2013-02-22 11:35:00,24.1,22.1,29.91,NE,46,4.0,6.0,92,0.00,,---,0.00,374.00,VWS V14.01,2013-02-22 17:35:00,
2013-02-22 11:40:00,24.3,22.3,29.91,NE,44,7.0,7.0,92,0.00,,---,0.00,362.00,VWS V14.01,2013-02-22 17:40:00,
2013-02-22 11:45:00,24.4,22.4,29.91,NE,46,5.0,6.0,92,0.00,,---,0.00,359.00,VWS V14.01,2013-02-22 17:45:00,
2013-02-22 11:50:00,24.6,22.6,29.90,NE,45,4.0,4.0,92,0.00,,---,0.00,399.00,VWS V14.01,2013-02-22 17:50:00,
2013-02-22 11:55:00,24.9,22.9,29.90,NE,41,6.0,6.0,92,0.00,,---,0.00,408.00,VWS V14.01,2013-02-22 17:55:00,
2013-02-22 12:00:00,24.9,22.9,29.90,NE,55,3.0,6.0,92,0.00,,---,0.00,401.00,VWS V14.01,2013-02-22 18:00:00,
2013-02-22 12:05:00,25.0,23.0,29.90,NE,50,3.0,6.0,92,0.00,,---,0.00,403.00,VWS V14.01,2013-02-22 18:05:00,
2013-02-22 12:10:00,24.9,22.9,29.90,NE,47,4.0,6.0,92,0.01,,---,0.01,396.00,VWS V14.01,2013-02-22 18:10:00,
2013-02-22 12:15:00,25.1,23.1,29.90,NE,50,6.0,6.0,92,0.01,,---,0.01,353.00,VWS V14.01,2013-02-22 18:15:00,
2013-02-22 12:20:00,25.0,22.8,29.90,NE,53,4.0,6.0,91,0.01,,---,0.01,380.00,VWS V14.01,2013-02-22 18:20:00,
2013-02-22 12:25:00,25.1,22.9,29.90,NE,52,3.0,5.0,91,0.02,,---,0.02,364.00,VWS V14.01,2013-02-22 18:25:00,
2013-02-22 12:30:00,25.2,23.0,29.90,NE,46,4.0,7.0,91,0.02,,---,0.02,371.00,VWS V14.01,2013-02-22 18:30:00,
2013-02-22 12:35:00,25.4,23.1,29.90,NE,37,3.0,5.0,91,0.02,,---,0.02,353.00,VWS V14.01,2013-02-22 18:35:00,
2013-02-22 12:40:00,25.5,23.5,29.90,NE,41,3.0,4.0,92,0.02,,---,0.02,297.00,VWS V14.01,2013-02-22 18:40:00,
2013-02-22 12:46:00,25.4,23.1,29.89,NE,46,6.0,6.0,91,0.02,,---,0.02,301.00,VWS V14.01,2013-02-22 18:46:00,
2013-02-22 12:51:00,25.2,23.0,29.89,NE,43,3.0,4.0,91,0.03,,---,0.03,278.00,VWS V14.01,2013-02-22 18:51:00,
2013-02-22 12:56:00,25.2,23.0,29.89,NE,42,2.0,5.0,91,0.03,,---,0.03,287.00,VWS V14.01,2013-02-22 18:56:00,
2013-02-22 13:01:00,25.3,23.0,29.88,NE,48,5.0,5.0,91,0.03,,---,0.03,278.00,VWS V14.01,2013-02-22 19:01:00,
2013-02-22 13:06:00,25.2,23.0,29.88,NE,50,5.0,5.0,91,0.03,,---,0.03,304.00,VWS V14.01,2013-02-22 19:06:00,
2013-02-22 13:11:00,25.2,23.0,29.88,NE,49,5.0,5.0,91,0.02,,---,0.03,679.00,VWS V14.01,2013-02-22 19:11:00,
2013-02-22 13:16:00,25.6,23.3,29.88,NE,48,3.0,4.0,91,0.02,,---,0.03,724.00,VWS V14.01,2013-02-22 19:16:00,
2013-02-22 13:21:00,26.1,23.8,29.88,NE,48,3.0,5.0,91,0.03,,---,0.04,396.00,VWS V14.01,2013-02-22 19:21:00,
2013-02-22 13:26:00,26.2,23.9,29.88,NE,45,2.0,4.0,91,0.02,,---,0.04,364.00,VWS V14.01,2013-02-22 19:26:00,
2013-02-22 13:31:00,26.3,23.8,29.88,NE,44,4.0,5.0,90,0.02,,---,0.04,701.00,VWS V14.01,2013-02-22 19:31:00,
2013-02-22 13:36:00,26.4,23.9,29.88,NE,45,1.0,5.0,90,0.02,,---,0.04,417.00,VWS V14.01,2013-02-22 19:36:00,
2013-02-22 13:41:00,26.3,23.8,29.88,NE,43,2.0,3.0,90,0.02,,---,0.04,362.00,VWS V14.01,2013-02-22 19:41:00,
2013-02-22 13:46:00,26.5,24.2,29.87,NE,45,0.0,2.0,91,0.02,,---,0.04,366.00,VWS V14.01,2013-02-22 19:46:00,
2013-02-22 13:51:00,26.4,23.9,29.87,NE,46,2.0,4.0,90,0.02,,---,0.05,290.00,VWS V14.01,2013-02-22 19:51:00,
2013-02-22 13:56:00,26.3,23.8,29.87,NE,46,0.0,3.0,90,0.02,,---,0.05,373.00,VWS V14.01,2013-02-22 19:56:00,
2013-02-22 14:01:00,26.5,24.2,29.87,NE,46,3.0,3.0,91,0.02,,---,0.05,288.00,VWS V14.01,2013-02-22 20:01:00,
2013-02-22 14:06:00,26.6,24.1,29.87,NE,46,3.0,4.0,90,0.02,,---,0.05,246.00,VWS V14.01,2013-02-22 20:06:00,
2013-02-22 14:11:00,26.3,23.8,29.87,NE,46,0.0,3.0,90,0.02,,---,0.05,223.00,VWS V14.01,2013-02-22 20:11:00,
2013-02-22 14:17:00,26.2,23.7,29.87,NE,46,0.0,2.0,90,0.02,,---,0.05,250.00,VWS V14.01,2013-02-22 20:17:00,
2013-02-22 14:22:00,26.4,23.9,29.87,NE,46,3.0,5.0,90,0.01,,---,0.05,279.00,VWS V14.01,2013-02-22 20:22:00,
2013-02-22 14:27:00,26.4,23.9,29.87,NE,46,0.0,3.0,90,0.02,,---,0.06,271.00,VWS V14.01,2013-02-22 20:27:00,
2013-02-22 14:32:00,26.5,24.0,29.87,NE,46,1.0,2.0,90,0.02,,---,0.06,243.00,VWS V14.01,2013-02-22 20:32:00,
2013-02-22 14:37:00,26.5,24.0,29.87,NE,45,3.0,3.0,90,0.02,,---,0.06,206.00,VWS V14.01,2013-02-22 20:37:00,
2013-02-22 14:42:00,26.6,23.8,29.87,NE,46,0.0,1.0,89,0.02,,---,0.06,197.00,VWS V14.01,2013-02-22 20:42:00,
2013-02-22 14:47:00,26.6,23.8,29.87,NE,46,3.0,4.0,89,0.02,,---,0.06,202.00,VWS V14.01,2013-02-22 20:47:00,
2013-02-22 14:52:00,26.4,23.6,29.87,NE,46,1.0,4.0,89,0.01,,---,0.06,197.00,VWS V14.01,2013-02-22 20:52:00,
2013-02-22 14:57:00,26.5,23.7,29.87,NE,43,4.0,5.0,89,0.01,,---,0.06,179.00,VWS V14.01,2013-02-22 20:57:00,
2013-02-22 15:02:00,26.4,23.6,29.87,NE,42,0.0,1.0,89,0.01,,---,0.06,165.00,VWS V14.01,2013-02-22 21:02:00,
2013-02-22 15:07:00,26.4,23.6,29.87,NE,42,0.0,4.0,89,0.01,,---,0.06,163.00,VWS V14.01,2013-02-22 21:07:00,
2013-02-22 15:12:00,26.5,23.7,29.87,NW,325,4.0,7.0,89,0.01,,---,0.06,163.00,VWS V14.01,2013-02-22 21:12:00,
2013-02-22 15:18:00,26.4,23.6,29.87,NW,325,2.0,3.0,89,0.01,,---,0.06,169.00,VWS V14.01,2013-02-22 21:18:00,
2013-02-22 15:23:00,26.5,23.7,29.87,NNW,329,3.0,5.0,89,0.01,,---,0.06,172.00,VWS V14.01,2013-02-22 21:23:00,
2013-02-22 15:28:00,26.4,23.3,29.87,NW,325,4.0,5.0,88,0.00,,---,0.06,176.00,VWS V14.01,2013-02-22 21:28:00,
2013-02-22 15:33:00,26.3,23.2,29.87,NNW,331,3.0,5.0,88,0.00,,---,0.06,169.00,VWS V14.01,2013-02-22 21:33:00,
2013-02-22 15:38:00,26.2,23.1,29.87,NNW,329,3.0,5.0,88,0.00,,---,0.06,155.00,VWS V14.01,2013-02-22 21:38:00,
2013-02-22 15:43:00,26.1,23.0,29.87,NNW,331,5.0,6.0,88,0.00,,---,0.06,156.00,VWS V14.01,2013-02-22 21:43:00,
2013-02-22 15:48:00,26.0,22.9,29.87,NNW,333,2.0,4.0,88,0.00,,---,0.06,153.00,VWS V14.01,2013-02-22 21:48:00,
2013-02-22 15:53:00,26.0,22.9,29.87,NNW,330,4.0,4.0,88,0.00,,---,0.06,144.00,VWS V14.01,2013-02-22 21:53:00,
2013-02-22 15:58:00,26.0,23.2,29.87,NNW,331,2.0,4.0,89,0.01,,---,0.07,139.00,VWS V14.01,2013-02-22 21:58:00,
2013-02-22 16:03:00,26.0,23.2,29.87,NNW,331,4.0,4.0,89,0.01,,---,0.07,137.00,VWS V14.01,2013-02-22 22:03:00,
2013-02-22 16:08:00,25.9,23.1,29.87,NNW,333,5.0,5.0,89,0.01,,---,0.07,137.00,VWS V14.01,2013-02-22 22:08:00,
2013-02-22 16:13:00,25.8,23.0,29.87,NNW,333,3.0,3.0,89,0.01,,---,0.07,111.00,VWS V14.01,2013-02-22 22:13:00,
2013-02-22 16:18:00,25.8,23.0,29.87,NNW,333,0.0,3.0,89,0.01,,---,0.07,84.00,VWS V14.01,2013-02-22 22:18:00,
2013-02-22 16:23:00,25.8,23.3,29.87,NNW,333,0.0,2.0,90,0.01,,---,0.07,81.00,VWS V14.01,2013-02-22 22:23:00,
2013-02-22 16:29:00,26.0,23.5,29.87,NNW,333,0.0,0.0,90,0.01,,---,0.07,70.00,VWS V14.01,2013-02-22 22:29:00,
2013-02-22 16:34:00,26.1,23.6,29.88,NNW,333,3.0,4.0,90,0.01,,---,0.07,62.00,VWS V14.01,2013-02-22 22:34:00,
2013-02-22 16:39:00,25.9,23.4,29.88,NNW,333,0.0,4.0,90,0.01,,---,0.07,54.00,VWS V14.01,2013-02-22 22:39:00,
2013-02-22 16:44:00,25.8,23.0,29.88,NNW,331,0.0,2.0,89,0.01,,---,0.07,47.00,VWS V14.01,2013-02-22 22:44:00,
2013-02-22 16:49:00,25.9,23.4,29.88,NNW,333,3.0,4.0,90,0.01,,---,0.07,42.00,VWS V14.01,2013-02-22 22:49:00,
2013-02-22 16:54:00,25.9,23.4,29.88,NNW,333,4.0,5.0,90,0.01,,---,0.07,35.00,VWS V14.01,2013-02-22 22:54:00,
2013-02-22 16:59:00,25.7,22.9,29.88,NNW,333,3.0,5.0,89,0.00,,---,0.07,33.00,VWS V14.01,2013-02-22 22:59:00,
2013-02-22 17:04:00,25.6,22.8,29.88,NNW,333,2.0,3.0,89,0.00,,---,0.07,30.00,VWS V14.01,2013-02-22 23:04:00,
2013-02-22 17:09:00,25.6,22.8,29.88,NNW,333,4.0,4.0,89,0.00,,---,0.07,25.00,VWS V14.01,2013-02-22 23:09:00,
2013-02-22 17:14:00,25.5,22.7,29.88,NNW,329,3.0,5.0,89,0.00,,---,0.07,21.00,VWS V14.01,2013-02-22 23:14:00,
2013-02-22 17:19:00,25.4,22.6,29.88,NNW,330,0.0,4.0,89,0.00,,---,0.07,18.00,VWS V14.01,2013-02-22 23:19:00,
2013-02-22 17:24:00,25.5,23.0,29.88,NNW,331,2.0,3.0,90,0.00,,---,0.07,14.00,VWS V14.01,2013-02-22 23:24:00,
2013-02-22 17:29:00,25.5,23.0,29.88,NNW,327,1.0,4.0,90,0.00,,---,0.07,11.00,VWS V14.01,2013-02-22 23:29:00,
2013-02-22 17:34:00,25.5,23.0,29.88,NNW,327,1.0,4.0,90,0.00,,---,0.07,9.00,VWS V14.01,2013-02-22 23:34:00,
2013-02-22 17:39:00,25.5,23.0,29.88,NNW,327,4.0,4.0,90,0.00,,---,0.07,5.00,VWS V14.01,2013-02-22 23:39:00,
2013-02-22 17:44:00,25.5,23.0,29.88,NNW,328,1.0,3.0,90,0.00,,---,0.07,5.00,VWS V14.01,2013-02-22 23:44:00,
2013-02-22 17:50:00,25.6,23.1,29.88,NNW,327,2.0,3.0,90,0.00,,---,0.07,0.00,VWS V14.01,2013-02-22 23:50:00,
2013-02-22 17:55:00,25.6,22.8,29.88,NW,324,3.0,5.0,89,0.00,,---,0.07,0.00,VWS V14.01,2013-02-22 23:55:00,
2013-02-22 18:00:00,25.5,22.7,29.88,NW,323,5.0,5.0,89,0.00,,---,0.07,0.00,VWS V14.01,2013-02-23 00:00:00,
2013-02-22 18:05:00,25.6,22.8,29.89,NW,324,4.0,4.0,89,0.00,,---,0.07,0.00,VWS V14.01,2013-02-23 00:05:00,
2013-02-22 18:10:00,25.6,22.8,29.89,NW,317,4.0,6.0,89,0.00,,---,0.07,0.00,VWS V14.01,2013-02-23 00:10:00,
2013-02-22 18:15:00,25.6,22.8,29.89,NW,315,4.0,6.0,89,0.00,,---,0.07,0.00,VWS V14.01,2013-02-23 00:15:00,
2013-02-22 18:20:00,25.5,22.7,29.89,NW,308,4.0,4.0,89,0.00,,---,0.07,0.00,VWS V14.01,2013-02-23 00:20:00,
2013-02-22 18:25:00,25.4,22.6,29.89,WNW,302,4.0,7.0,89,0.00,,---,0.07,0.00,VWS V14.01,2013-02-23 00:25:00,
2013-02-22 18:30:00,25.4,22.6,29.89,WNW,301,3.0,6.0,89,0.00,,---,0.07,0.00,VWS V14.01,2013-02-23 00:30:00,
2013-02-22 18:35:00,25.4,22.6,29.89,WNW,300,3.0,5.0,89,0.00,,---,0.07,0.00,VWS V14.01,2013-02-23 00:35:00,
2013-02-22 18:40:00,25.5,22.7,29.89,WNW,301,2.0,4.0,89,0.00,,---,0.07,0.00,VWS V14.01,2013-02-23 00:40:00,
2013-02-22 18:45:00,25.5,22.7,29.89,WNW,301,1.0,4.0,89,0.00,,---,0.07,0.00,VWS V14.01,2013-02-23 00:45:00,
2013-02-22 18:50:00,25.5,22.7,29.89,WNW,301,3.0,5.0,89,0.00,,---,0.07,0.00,VWS V14.01,2013-02-23 00:50:00,
2013-02-22 18:55:00,25.5,22.7,29.89,WNW,300,4.0,5.0,89,0.00,,---,0.07,0.00,VWS V14.01,2013-02-23 00:55:00,
2013-02-22 19:00:00,25.4,22.6,29.90,WNW,301,4.0,4.0,89,0.00,,---,0.07,0.00,VWS V14.01,2013-02-23 01:00:00,
2013-02-22 19:05:00,25.5,22.7,29.90,WNW,301,4.0,5.0,89,0.00,,---,0.07,0.00,VWS V14.01,2013-02-23 01:05:00,
2013-02-22 19:11:00,25.4,22.4,29.90,WNW,298,5.0,6.0,88,0.00,,---,0.07,0.00,VWS V14.01,2013-02-23 01:11:00,
2013-02-22 19:16:00,25.3,22.2,29.90,WNW,294,2.0,7.0,88,0.00,,---,0.07,0.00,VWS V14.01,2013-02-23 01:16:00,
2013-02-22 19:21:00,25.3,22.2,29.90,WNW,294,3.0,6.0,88,0.00,,---,0.07,0.00,VWS V14.01,2013-02-23 01:21:00,
2013-02-22 19:26:00,25.3,22.2,29.90,WNW,294,2.0,6.0,88,0.00,,---,0.07,0.00,VWS V14.01,2013-02-23 01:26:00,
2013-02-22 19:31:00,25.3,22.2,29.89,WNW,290,4.0,7.0,88,0.00,,---,0.07,0.00,VWS V14.01,2013-02-23 01:31:00,
2013-02-22 19:36:00,25.2,22.1,29.89,WNW,290,4.0,4.0,88,0.00,,---,0.07,0.00,VWS V14.01,2013-02-23 01:36:00,
2013-02-22 19:41:00,25.2,22.1,29.89,WNW,290,6.0,6.0,88,0.00,,---,0.07,0.00,VWS V14.01,2013-02-23 01:41:00,
2013-02-22 19:46:00,25.2,22.1,29.89,WNW,290,4.0,6.0,88,0.00,,---,0.07,0.00,VWS V14.01,2013-02-23 01:46:00,
2013-02-22 19:51:00,25.2,22.1,29.89,WNW,290,4.0,7.0,88,0.00,,---,0.07,0.00,VWS V14.01,2013-02-23 01:51:00,
2013-02-22 19:56:00,25.1,22.0,29.89,WNW,290,5.0,5.0,88,0.00,,---,0.07,0.00,VWS V14.01,2013-02-23 01:56:00,
2013-02-22 20:01:00,25.1,22.0,29.88,WNW,290,3.0,9.0,88,0.00,,---,0.07,0.00,VWS V14.01,2013-02-23 02:01:00,
2013-02-22 20:06:00,25.0,22.0,29.88,WNW,291,3.0,6.0,88,0.00,,---,0.07,0.00,VWS V14.01,2013-02-23 02:06:00,
2013-02-22 20:11:00,25.0,22.0,29.88,WNW,296,4.0,7.0,88,0.00,,---,0.07,0.00,VWS V14.01,2013-02-23 02:11:00,
2013-02-22 20:16:00,24.9,21.9,29.88,WNW,296,3.0,6.0,88,0.00,,---,0.07,0.00,VWS V14.01,2013-02-23 02:16:00,
2013-02-22 20:21:00,24.9,21.9,29.88,WNW,296,4.0,4.0,88,0.00,,---,0.07,0.00,VWS V14.01,2013-02-23 02:21:00,
2013-02-22 20:26:00,24.8,21.8,29.88,WNW,296,2.0,5.0,88,0.00,,---,0.07,0.00,VWS V14.01,2013-02-23 02:26:00,
2013-02-22 20:31:00,24.8,21.8,29.88,WNW,296,3.0,4.0,88,0.00,,---,0.07,0.00,VWS V14.01,2013-02-23 02:31:00,
2013-02-22 20:36:00,24.7,21.7,29.88,WNW,297,4.0,6.0,88,0.00,,---,0.07,0.00,VWS V14.01,2013-02-23 02:36:00,
2013-02-22 20:42:00,24.6,21.6,29.88,WNW,297,3.0,6.0,88,0.00,,---,0.07,0.00,VWS V14.01,2013-02-23 02:42:00,
2013-02-22 20:47:00,24.6,21.6,29.88,WNW,296,4.0,4.0,88,0.00,,---,0.07,0.00,VWS V14.01,2013-02-23 02:47:00,
2013-02-22 20:52:00,24.5,21.5,29.88,WNW,297,3.0,5.0,88,0.00,,---,0.07,0.00,VWS V14.01,2013-02-23 02:52:00,
2013-02-22 20:57:00,24.5,21.5,29.88,WNW,296,2.0,5.0,88,0.00,,---,0.07,0.00,VWS V14.01,2013-02-23 02:57:00,
2013-02-22 21:02:00,24.4,21.4,29.87,WNW,297,1.0,6.0,88,0.00,,---,0.07,0.00,VWS V14.01,2013-02-23 03:02:00,
2013-02-22 21:07:00,24.4,21.4,29.87,WNW,297,1.0,4.0,88,0.00,,---,0.07,0.00,VWS V14.01,2013-02-23 03:07:00,
2013-02-22 21:12:00,24.3,21.3,29.87,WNW,296,0.0,2.0,88,0.00,,---,0.07,0.00,VWS V14.01,2013-02-23 03:12:00,
2013-02-22 21:17:00,24.2,21.2,29.87,WNW,297,0.0,4.0,88,0.00,,---,0.07,0.00,VWS V14.01,2013-02-23 03:17:00,
2013-02-22 21:22:00,24.2,21.2,29.87,WNW,297,0.0,2.0,88,0.00,,---,0.07,0.00,VWS V14.01,2013-02-23 03:22:00,
2013-02-22 21:27:00,24.1,21.3,29.87,WNW,297,0.0,1.0,89,0.00,,---,0.07,0.00,VWS V14.01,2013-02-23 03:27:00,
2013-02-22 21:32:00,24.0,21.2,29.87,WNW,297,1.0,1.0,89,0.00,,---,0.07,0.00,VWS V14.01,2013-02-23 03:32:00,
2013-02-22 21:37:00,23.9,21.1,29.87,WNW,296,0.0,4.0,89,0.00,,---,0.07,0.00,VWS V14.01,2013-02-23 03:37:00,
2013-02-22 21:42:00,23.9,21.1,29.87,WNW,298,1.0,4.0,89,0.00,,---,0.07,0.00,VWS V14.01,2013-02-23 03:42:00,
2013-02-22 21:47:00,23.8,21.0,29.87,WNW,297,1.0,3.0,89,0.00,,---,0.07,0.00,VWS V14.01,2013-02-23 03:47:00,
2013-02-22 21:52:00,23.8,21.0,29.87,WNW,297,3.0,3.0,89,0.00,,---,0.07,0.00,VWS V14.01,2013-02-23 03:52:00,
2013-02-22 21:58:00,23.9,21.1,29.87,WNW,298,3.0,3.0,89,0.00,,---,0.07,0.00,VWS V14.01,2013-02-23 03:58:00,
2013-02-22 22:03:00,23.9,21.1,29.87,WNW,296,3.0,4.0,89,0.00,,---,0.07,0.00,VWS V14.01,2013-02-23 04:03:00,
2013-02-22 22:08:00,23.8,21.0,29.87,WNW,296,3.0,4.0,89,0.00,,---,0.07,0.00,VWS V14.01,2013-02-23 04:08:00,
2013-02-22 22:13:00,23.8,21.0,29.87,WNW,297,2.0,5.0,89,0.00,,---,0.07,0.00,VWS V14.01,2013-02-23 04:13:00,
2013-02-22 22:18:00,23.7,20.9,29.87,WNW,298,2.0,4.0,89,0.00,,---,0.07,0.00,VWS V14.01,2013-02-23 04:18:00,
2013-02-22 22:23:00,23.5,21.0,29.87,WNW,297,2.0,3.0,90,0.00,,---,0.07,0.00,VWS V14.01,2013-02-23 04:23:00,
2013-02-22 22:28:00,23.4,20.9,29.87,WNW,297,1.0,3.0,90,0.00,,---,0.07,0.00,VWS V14.01,2013-02-23 04:28:00,
2013-02-22 22:33:00,23.4,20.9,29.87,WNW,297,1.0,3.0,90,0.00,,---,0.07,0.00,VWS V14.01,2013-02-23 04:33:00,
2013-02-22 22:38:00,23.3,20.8,29.87,WNW,297,2.0,4.0,90,0.00,,---,0.07,0.00,VWS V14.01,2013-02-23 04:38:00,
2013-02-22 22:43:00,23.2,20.7,29.87,WNW,297,2.0,3.0,90,0.00,,---,0.07,0.00,VWS V14.01,2013-02-23 04:43:00,
2013-02-22 22:48:00,23.1,20.6,29.88,WNW,297,4.0,4.0,90,0.00,,---,0.07,0.00,VWS V14.01,2013-02-23 04:48:00,
2013-02-22 22:53:00,23.1,20.6,29.88,WNW,297,2.0,4.0,90,0.00,,---,0.07,0.00,VWS V14.01,2013-02-23 04:53:00,
2013-02-22 22:58:00,23.1,20.9,29.88,WNW,298,1.0,4.0,91,0.00,,---,0.07,0.00,VWS V14.01,2013-02-23 04:58:00,
2013-02-22 23:00:00,23.1,20.9,29.88,WNW,296,3.0,4.0,91,0.00,,---,0.07,0.00,VWS V14.01,2013-02-23 05:00:00,
2013-02-22 23:02:00,23.0,20.8,29.87,WNW,297,4.0,4.0,91,0.00,,---,0.07,0.00,VWS V14.01,2013-02-23 05:02:00,
2013-02-22 23:07:00,23.0,20.8,29.87,WNW,297,3.0,3.0,91,0.00,,---,0.07,0.00,VWS V14.01,2013-02-23 05:07:00,
2013-02-22 23:12:00,23.0,20.8,29.87,WNW,298,4.0,4.0,91,0.00,,---,0.07,0.00,VWS V14.01,2013-02-23 05:12:00,
2013-02-22 23:17:00,22.9,20.7,29.87,WNW,297,3.0,4.0,91,0.00,,---,0.07,0.00,VWS V14.01,2013-02-23 05:17:00,
2013-02-22 23:22:00,22.9,20.7,29.87,WNW,296,0.0,3.0,91,0.00,,---,0.07,0.00,VWS V14.01,2013-02-23 05:22:00,
2013-02-22 23:27:00,22.8,20.6,29.87,WNW,297,2.0,3.0,91,0.00,,---,0.07,0.00,VWS V14.01,2013-02-23 05:27:00,
2013-02-22 23:33:00,22.8,20.6,29.87,WNW,297,3.0,5.0,91,0.00,,---,0.07,0.00,VWS V14.01,2013-02-23 05:33:00,
2013-02-22 23:38:00,22.8,20.6,29.87,WNW,297,3.0,5.0,91,0.00,,---,0.07,0.00,VWS V14.01,2013-02-23 05:38:00,
2013-02-22 23:43:00,22.7,20.5,29.87,WNW,296,2.0,4.0,91,0.00,,---,0.07,0.00,VWS V14.01,2013-02-23 05:43:00,
2013-02-22 23:48:00,22.7,20.5,29.86,WNW,297,2.0,4.0,91,0.00,,---,0.07,0.00,VWS V14.01,2013-02-23 05:48:00,
2013-02-22 23:53:00,22.6,20.4,29.86,WNW,297,4.0,4.0,91,0.00,,---,0.07,0.00,VWS V14.01,2013-02-23 05:53:00,
2013-02-22 23:58:00,22.6,20.4,29.86,WNW,296,3.0,5.0,91,0.00,,---,0.07,0.00,VWS V14.01,2013-02-23 05:58:00,